NOAA 16 DEB, 41667

Orbit data source: Space-Track

NOAA 16 DEB, 41667 is space debris in SSO originally from a launch on Thu, 21 Sep 2000 UTC launched from the Air Force Western Test Range (AFWTR). Debris objects in space refer to the collection of defunct objects orbiting the Earth. Examples of debris include non-operational satellites, rocket bodies, and fragments generated from explosions, collisions, or faulty payload assembly.

Loading next visibility...
Identifier
41667, 2000-055PG
Orbit
SSO
Country
Flag of USUS
Related business
Manufacturer
Unknown
Mission
Spacecraft
Bus & Motor
Unknown
Mass
Unknown
Launch date (UTC)
2000-09-21 (26 years ago)
Launch vehicle
Unknown
Launch site
Air Force Western Test Range (AFWTR)
Object type
Payload
Rocket body
Debris
Shape & HBR
Unknown shape, 0.1 m
Radar Cross Section
Small (<0.1 m²)

Expand to show TLE details & history
Last TLE update: 2 weeks ago

TLE from 2 weeks ago
0 NOAA 16 DEB
1 41667U 00055PG  26214.03520538  .00000937  00000-0  41123-3 0  9998
2 41667  98.7773 319.4122 0029707  44.5321 315.8238 14.25792852534651
Epoch: 2026-08-02T00:50Z
TLE epoch observation values (Epoch: 2026-08-02T00:50:41.744Z)
Latitude
-0.0001°
Longitude
-3.90017°
Altitude
793.47 km
Speed
7.465 km/s
True Right ascension
21h 17m 38s
True Declination
0° 00' 00"
Sunlit
Object was in full shadow at epoch
Visualization orbit readout
Latitude
Unknown
Longitude
Unknown
Altitude
Unknown
Speed
Unknown
Apparent Right ascension
Unknown
Apparent Declination
Unknown
Sunlit
N/A
Visualization observer readout
Local Sidereal Time
17:20:02
Azimuth
Unknown
Elevation
Unknown
Doppler factor
Unknown
Orbital elements
Apogee altitude
824.315 km
Perigee altitude
781.649 km
Semi-major axis
7,181.119 km
Eccentricity
0.00297
Inclination
98.7773°
RAAN
319.4122°
Arg. of periapsis
44.5321°
True anomaly
315.58594°
Mean anomaly
315.8238°
Eccentric anomaly
315.70493°
Mean motion
3.5666 °/min
Orbital period
100.94 mins
BSTAR
0.00041123
Loading maneuver chart data...
Computing Atmospheric mass density...
Loading historical data...
Loading historical data...
Loading historical data...
Loading historical data...
Loading historical data...
Loading historical data...
Loading historical data...

Documentation

Showing up to 5 results
|